Corning, AR

12:52 AM CDT on October 22, 2017 (GMT -0500)
Corning

Weather History for K4M9 - April, 2014

Change the Weather History Date:

Saturday, April 19, 2014

  Actual Average (KARG) Record (KARG)
Temperature  
Mean Temperature 62 °F -  
Max Temperature 75 °F 68 °F 87 °F (2011)
Min Temperature 48 °F 50 °F 41 °F (1998)
Degree Days  
Heating Degree Days 4    
Growing Degree Days 12 (Base 50)    
Moisture  
Dew Point 46 °F    
Average Humidity 58    
Maximum Humidity 94    
Minimum Humidity 27    
Precipitation  
Precipitation 0.00 in - - ()
Sea Level Pressure  
Sea Level Pressure 30.21 in    
Wind  
Wind Speed 5 mph (NE)    
Max Wind Speed 9 mph    
Max Gust Speed -    
Visibility 10 miles    
Events      
Averages and records for this station are not official NWS values.
T = Trace of Precipitation, MM = Missing Value Source: NWS Daily Summary

Daily Weather History Graph

Daily Weather History Graph

Search for Another Location

Airport or City:

Trip Planner

Search our weather history database for the weather conditions in past years. The results will help you decide how hot, cold, wet, or windy it might be!

Date:

Astronomy

Apr. 19, 2014 Rise Set
Actual Time 6:23 AM CDT 7:40 PM CDT
Civil Twilight 5:56 AM CDT 8:07 PM CDT
Nautical Twilight 5:25 AM CDT 8:39 PM CDT
Astronomical Twilight 4:51 AM CDT 9:12 PM CDT
Moon No Moon Rise 9:46 AM CDT (4/19)
Length of Visible Light 14h 10m
Length of Day
13h 16m
Waning Gibbous, 78% of the Moon is Illuminated
Apr 19
Waning Gibbous
Apr 22
Last Quarter
Apr 29
New
May 6
First Quarter
May 14
Full

Hourly Weather History & Observations

Time (CDT) Temp. Dew Point Humidity Pressure Visibility Wind Dir Wind Speed Gust Speed Precip Events Conditions
12:15 AM 55.4 °F 48.2 °F 77% 30.22 in 10.0 mi NNE 4.6 mph - N/A   Clear
12:35 AM 53.6 °F 50.0 °F 88% 30.23 in 10.0 mi Calm Calm - N/A   Clear
12:55 AM 53.6 °F 50.0 °F 88% 30.22 in 10.0 mi Calm Calm - N/A   Clear
1:15 AM 53.6 °F 50.0 °F 88% 30.23 in 10.0 mi Calm Calm - N/A   Clear
1:35 AM 51.8 °F 50.0 °F 94% 30.22 in 10.0 mi Calm Calm - N/A   Clear
1:55 AM 53.6 °F 50.0 °F 88% 30.22 in 10.0 mi NNW 3.5 mph - N/A   Clear
2:15 AM 53.6 °F 48.2 °F 82% 30.22 in 10.0 mi NNW 4.6 mph - N/A   Clear
2:35 AM 50.0 °F 48.2 °F 94% 30.22 in 10.0 mi NNW 5.8 mph - N/A   Clear
2:55 AM 51.8 °F 46.4 °F 82% 30.21 in 10.0 mi North 5.8 mph - N/A   Clear
3:15 AM 53.6 °F 46.4 °F 77% 30.20 in 10.0 mi North 6.9 mph - N/A   Clear
3:35 AM 53.6 °F 44.6 °F 72% 30.21 in 10.0 mi North 6.9 mph - N/A   Clear
3:55 AM 51.8 °F 44.6 °F 76% 30.21 in 10.0 mi North 4.6 mph - N/A   Clear
4:15 AM 50.0 °F 46.4 °F 87% 30.21 in 10.0 mi North 5.8 mph - N/A   Clear
4:35 AM 53.6 °F 44.6 °F 72% 30.21 in 10.0 mi North 6.9 mph - N/A   Clear
4:55 AM 50.0 °F 44.6 °F 82% 30.21 in 10.0 mi NNE 6.9 mph - N/A   Clear
5:15 AM 48.2 °F 44.6 °F 87% 30.21 in 10.0 mi NE 6.9 mph - N/A   Clear
5:35 AM 50.0 °F 44.6 °F 82% 30.21 in 10.0 mi NNE 6.9 mph - N/A   Clear
5:55 AM 50.0 °F 44.6 °F 82% 30.21 in 10.0 mi NNE 4.6 mph - N/A   Clear
6:15 AM 50.0 °F 44.6 °F 82% 30.22 in 10.0 mi NNE 4.6 mph - N/A   Clear
6:35 AM 50.0 °F 44.6 °F 82% 30.23 in 10.0 mi NNE 5.8 mph - N/A   Clear
6:55 AM 51.8 °F 42.8 °F 71% 30.23 in 10.0 mi NNE 5.8 mph - N/A   Clear
7:15 AM 51.8 °F 44.6 °F 76% 30.24 in 10.0 mi North 4.6 mph - N/A   Clear
7:35 AM 53.6 °F 44.6 °F 72% 30.24 in 10.0 mi NNE 4.6 mph - N/A   Clear
7:55 AM 55.4 °F 46.4 °F 72% 30.25 in 10.0 mi North 4.6 mph - N/A   Clear
8:15 AM 55.4 °F 44.6 °F 67% 30.25 in 10.0 mi NNE 4.6 mph - N/A   Clear
8:35 AM 57.2 °F 46.4 °F 67% 30.26 in 10.0 mi NE 6.9 mph - N/A   Clear
8:55 AM 59.0 °F 46.4 °F 63% 30.26 in 10.0 mi NE 8.1 mph - N/A   Clear
9:15 AM 62.6 °F 46.4 °F 55% 30.26 in 10.0 mi NE 6.9 mph - N/A   Clear
9:35 AM 62.6 °F 46.4 °F 55% 30.26 in 10.0 mi ENE 8.1 mph - N/A   Clear
9:55 AM 66.2 °F 48.2 °F 52% 30.26 in 10.0 mi ENE 5.8 mph - N/A   Clear
10:15 AM 68.0 °F 46.4 °F 46% 30.27 in 10.0 mi East 5.8 mph - N/A   Clear
10:35 AM 68.0 °F 46.4 °F 46% 30.27 in 10.0 mi ENE 5.8 mph - N/A   Clear
10:55 AM 71.6 °F 46.4 °F 41% 30.26 in 10.0 mi East 8.1 mph - N/A   Clear
11:15 AM 71.6 °F 46.4 °F 41% 30.26 in 10.0 mi ENE 8.1 mph - N/A   Clear
11:35 AM 73.4 °F 44.6 °F 36% 30.26 in 10.0 mi ENE 6.9 mph - N/A   Clear
11:55 AM 73.4 °F 42.8 °F 33% 30.25 in 10.0 mi ENE 6.9 mph - N/A   Unknown
12:15 PM 73.4 °F 42.8 °F 33% 30.24 in 10.0 mi East 9.2 mph - N/A   Unknown
12:35 PM 73.4 °F 42.8 °F 33% 30.24 in 10.0 mi East 9.2 mph - N/A   Unknown
12:55 PM 73.4 °F 44.6 °F 36% 30.23 in 10.0 mi East 6.9 mph - N/A   Unknown
1:15 PM 75.2 °F 42.8 °F 31% 30.22 in 10.0 mi East 6.9 mph - N/A   Unknown
1:35 PM 75.2 °F 42.8 °F 31% 30.22 in 10.0 mi ESE 4.6 mph - N/A   Unknown
1:55 PM 75.2 °F 42.8 °F 31% 30.22 in 10.0 mi ENE 6.9 mph - N/A   Unknown
2:15 PM 75.2 °F 41.0 °F 29% 30.21 in 10.0 mi ESE 5.8 mph - N/A   Unknown
2:35 PM 75.2 °F 42.8 °F 31% 30.20 in 10.0 mi ENE 3.5 mph - N/A   Unknown
2:55 PM 75.2 °F 41.0 °F 29% 30.19 in 10.0 mi ENE 5.8 mph - N/A   Clear
3:15 PM 75.2 °F 39.2 °F 27% 30.18 in 10.0 mi North 4.6 mph - N/A   Unknown
3:35 PM 75.2 °F 39.2 °F 27% 30.18 in 10.0 mi East 6.9 mph - N/A   Unknown
3:55 PM 75.2 °F 39.2 °F 27% 30.17 in 10.0 mi East 6.9 mph - N/A   Unknown
4:15 PM 75.2 °F 39.2 °F 27% 30.16 in 10.0 mi East 4.6 mph - N/A   Unknown
4:35 PM 75.2 °F 41.0 °F 29% 30.16 in 10.0 mi Calm Calm - N/A   Unknown
4:55 PM 75.2 °F 42.8 °F 31% 30.16 in 10.0 mi ENE 5.8 mph - N/A   Unknown
5:15 PM 75.2 °F 41.0 °F 29% 30.16 in 10.0 mi ENE 9.2 mph - N/A   Clear
5:35 PM 75.2 °F 41.0 °F 29% 30.16 in 10.0 mi NE 4.6 mph - N/A   Clear
5:55 PM 75.2 °F 42.8 °F 31% 30.16 in 10.0 mi ENE 6.9 mph - N/A   Clear
6:15 PM 75.2 °F 42.8 °F 31% 30.15 in 10.0 mi ENE 6.9 mph - N/A   Clear
6:35 PM 73.4 °F 42.8 °F 33% 30.15 in 10.0 mi ENE 6.9 mph - N/A   Clear
6:55 PM 71.6 °F 46.4 °F 41% 30.16 in 10.0 mi ENE 8.1 mph - N/A   Clear
7:15 PM 69.8 °F 48.2 °F 46% 30.16 in 10.0 mi ENE 6.9 mph - N/A   Clear
7:35 PM 66.2 °F 48.2 °F 52% 30.16 in 10.0 mi East 5.8 mph - N/A   Clear
7:55 PM 66.2 °F 48.2 °F 52% 30.16 in 10.0 mi East 3.5 mph - N/A   Clear
8:15 PM 66.2 °F 46.4 °F 49% 30.17 in 10.0 mi East 3.5 mph - N/A   Clear
8:35 PM 66.2 °F 46.4 °F 49% 30.16 in 10.0 mi East 4.6 mph - N/A   Clear
8:55 PM 64.4 °F 48.2 °F 56% 30.17 in 10.0 mi Calm Calm - N/A   Clear
9:15 PM 62.6 °F 48.2 °F 59% 30.17 in 10.0 mi Calm Calm - N/A   Clear
9:35 PM 60.8 °F 50.0 °F 68% 30.17 in 7.0 mi Calm Calm - N/A   Clear
9:55 PM 59.0 °F 50.0 °F 72% 30.18 in 8.0 mi Calm Calm - N/A   Clear
10:15 PM 59.0 °F 50.0 °F 72% 30.18 in 10.0 mi Calm Calm - N/A   Clear
10:35 PM 60.8 °F 48.2 °F 63% 30.18 in 10.0 mi Calm Calm - N/A   Clear
10:55 PM 59.0 °F 50.0 °F 72% 30.17 in 10.0 mi Calm Calm - N/A   Clear
11:15 PM 57.2 °F 50.0 °F 77% 30.17 in 10.0 mi Calm Calm - N/A   Clear
11:35 PM 57.2 °F 50.0 °F 77% 30.16 in 9.0 mi ENE 3.5 mph - N/A   Clear
11:55 PM 57.2 °F 50.0 °F 77% 30.16 in 10.0 mi NE 3.5 mph - N/A   Clear